Content
SEND FEEDBACK

Daily
Averages
Monthly
Summary
Australia

KANGARILLA, SOUTH AUSTRALIA


Home > Oceania > Australia > South Australia
Elevation: 1000 feet     Latitude: 35 00S     Longitude: 138 36E

WEATHER
 
SELECT A DAY
Number of Records: 295,410;   Date Range: 7/1/96 - 8/10/14
 
SHARE

PRINT THIS DATA

[ ← Previous Day ]
WEATHER ALMANAC - JANUARY 31, 2013
[ Next Day → ]
[ °C ]   °F
Weather ElementAverageHighLow
Temperature64.3 °F69.8 °F (4:00 pm)59 °F (9:00 am)
Dewpoint53.5 °F60 °F (7:30 am)42.8 °F (9:30 pm)
Humidity68 %94 % (7:55 am)32 % (6:00 pm)
Barometer29.95 in30.07 in (10:30 pm)29.89 in (4:30 am)
Wind Speed12.2 mph20.7 mph (4:00 pm)
Wind Gust31.1 mph (6:31 pm)
Weather ElementAverage
Visibility7 mi
Wind DirectionSSW (217.9 °)

Weather ElementTotal
Precipitation---
Heating Degree Days0.6 (Base 65)
Growing Degree Days14.4 (Base 50)
Averaged from 68 records on January 31, 2013
WEATHER CONDITIONS BREAKOUT
WIND DIRECTION BREAKOUT
WEATHER BY HOUR - JANUARY 31, 2013
[ °C ]   °F
Local TimeTemperatureDewpointHumidityBarometerVisibilityWind DirectionWind SpeedGust SpeedPrecipitationEventsConditions
12:00 AM68.0 °F59.0 °F73 %29.95 in6.2 miWSW (240°)12.7 mphPartly Cloudy
12:30 AM68.0 °F57.2 °F68 %29.95 in6.2 miWest (260°)12.7 mphPartly Cloudy
1:00 AM66.2 °F59.0 °F78 %29.95 in6.2 miWSW (250°)11.5 mphPartly Cloudy
1:30 AM66.0 °F59.0 °F70 %29.95 inWest (260°)9.2 mph
1:30 AM66.2 °F59.0 °F78 %29.95 in6.2 miWest (260°)9.2 mphPartly Cloudy
2:00 AM66.2 °F59.0 °F78 %29.92 in6.2 miWSW (250°)8.1 mphPartly Cloudy
2:30 AM66.2 °F59.0 °F78 %29.92 in6.2 miWest (260°)9.2 mphPartly Cloudy
3:00 AM66.2 °F57.2 °F73 %29.92 in6.2 miWest (270°)6.9 mphMostly Cloudy
3:00 AM66.0 °F58.0 °F67 %29.93 in19.0 miWest (270°)6.9 mphPartly Cloudy
3:30 AM66.2 °F57.2 °F73 %29.92 in6.2 miWest (280°)8.1 mphMostly Cloudy
4:00 AM66.2 °F57.2 °F73 %29.92 in6.2 miWest (280°)8.1 mphMostly Cloudy
4:30 AM66.0 °F58.0 °F69 %29.91 inWest (270°)9.2 mph
4:30 AM66.2 °F59.0 °F78 %29.89 in6.2 miWest (270°)9.2 mphMostly Cloudy
5:00 AM66.2 °F57.2 °F73 %29.89 in6.2 miWest (280°)9.2 mphScattered Clouds
5:30 AM66.2 °F57.2 °F73 %29.89 in6.2 miWest (280°)6.9 mphMostly Cloudy
6:00 AM67.0 °F58.0 °F64 %29.90 in19.0 miWNW (300°)10.4 mphPartly Cloudy
6:00 AM68.0 °F57.2 °F68 %29.89 in6.2 miWNW (300°)10.4 mphMostly Cloudy
6:30 AM68.0 °F59.0 °F73 %29.89 in6.2 miWNW (300°)11.5 mphMostly Cloudy
7:00 AM68.0 °F59.0 °F73 %29.89 in6.2 miNW (320°)10.4 mphRainLight Rain Showers
7:30 AM64.0 °F60.0 °F82 %29.91 inSSW (200°)11.5 mph
7:30 AM64.4 °F59.0 °F83 %29.89 in6.2 miSSW (200°)11.5 mphRainLight Rain Showers
7:43 AM62.6 °F59.0 °F88 %29.89 in3.7 miSSW (200°)13.8 mphRainLight Rain Showers
7:55 AM60.8 °F59.0 °F94 %29.92 in2.5 miSSW (210°)11.5 mphRainRain Showers
8:00 AM60.8 °F59.0 °F94 %29.92 in3.1 miSSW (210°)12.7 mphRainLight Rain Showers
8:30 AM60.8 °F55.4 °F82 %29.92 in3.1 miSSW (210°)11.5 mphRainLight Rain Showers
9:00 AM59.0 °F55.4 °F88 %29.92 in5.0 miSW (220°)16.1 mphMostly Cloudy
9:00 AM60.0 °F56.0 °F82 %29.94 in5.0 miSW (220°)16.1 mphRainLight Rain Showers
9:30 AM59.0 °F55.4 °F88 %29.95 in2.5 miSSW (210°)11.5 mphRainRain Showers
10:00 AM59.0 °F57.2 °F94 %29.95 in2.5 miSouth (180°)6.9 mphRainRain Showers
10:18 AM59.0 °F57.2 °F94 %29.95 in6.2 miSE (140°)4.6 mphMostly Cloudy
10:30 AM60.0 °F56.0 °F83 %29.95 inENE (60°)6.9 mph
10:30 AM59.0 °F57.2 °F94 %29.95 in6.2 miENE (60°)6.9 mphLight Drizzle
11:00 AM60.8 °F57.2 °F88 %29.95 in5.6 miNNE (30°)5.8 mphLight Drizzle
11:30 AM60.8 °F57.2 °F88 %29.95 in6.2 miENE (60°)5.8 mphMostly Cloudy
12:00 PM60.8 °F55.4 °F82 %29.95 in6.2 miNNW (330°)5.8 mphRainLight Rain Showers
12:00 PM61.0 °F56.0 °F77 %29.97 in9.0 miNNW (330°)5.8 mphRainLight Rain Showers
12:14 PM62.6 °F55.4 °F77 %29.95 in4.3 miWNW (300°)4.6 mphRainLight Rain Showers
12:30 PM60.8 °F57.2 °F88 %29.95 in4.3 miWest (260°)6.9 mphRainLight Rain Showers
12:44 PM62.6 °F57.2 °F82 %29.95 in6.2 miWSW (250°)5.8 mphMostly Cloudy
1:00 PM66.2 °F59.0 °F78 %29.95 in6.2 miSSW (210°)5.8 mphMostly Cloudy
1:30 PM66.0 °F55.0 °F59 %29.96 inSSW (210°)11.5 mph
1:30 PM66.2 °F55.4 °F68 %29.95 in6.2 miSSW (210°)11.5 mphMostly Cloudy
2:00 PM62.6 °F57.2 °F82 %29.95 in6.2 miSW (220°)18.4 mphRainLight Rain Showers
2:30 PM68.0 °F51.8 °F56 %29.95 in6.2 miSW (220°)19.6 mphMostly Cloudy
3:00 PM67.0 °F52.0 °F49 %29.95 in19.0 miSW (220°)19.6 mphRainLight Rain Showers
3:00 PM66.2 °F51.8 °F60 %29.95 in6.2 miSW (220°)19.6 mphMostly Cloudy
3:30 PM68.0 °F53.6 °F60 %29.95 in6.2 miSSW (210°)19.6 mphMostly Cloudy
4:00 PM69.8 °F46.4 °F43 %29.95 in6.2 miSSW (210°)20.7 mphMostly Cloudy
4:30 PM69.0 °F47.0 °F34 %29.95 inSSW (210°)19.6 mph
4:30 PM68.0 °F46.4 °F46 %29.95 in6.2 miSSW (210°)19.6 mphMostly Cloudy
5:00 PM68.0 °F50.0 °F52 %29.95 in6.2 miSSW (210°)20.7 mphScattered Clouds
5:30 PM68.0 °F46.4 °F46 %29.95 in6.2 miSSW (210°)20.7 mphScattered Clouds
6:00 PM68.0 °F45.0 °F32 %29.96 in19.0 miSSW (210°)20.7 mphPartly Cloudy
6:00 PM68.0 °F44.6 °F43 %29.95 in6.2 miSSW (210°)20.7 mphScattered Clouds
6:31 PM68.0 °F46.4 °F46 %29.98 in6.2 miSSW (210°)19.6 mph31.1 mphScattered Clouds
7:00 PM66.2 °F44.6 °F46 %29.98 in6.2 miSSW (210°)18.4 mphScattered Clouds
7:30 PM65.0 °F46.0 °F38 %30.00 inSSW (200°)18.4 mph
7:30 PM66.2 °F46.4 °F49 %29.98 in6.2 miSSW (200°)18.4 mphMostly Cloudy
8:00 PM64.4 °F44.6 °F49 %30.01 inSouth (170°)17.3 mphClear
8:30 PM62.6 °F44.6 °F52 %30.01 inSouth (170°)13.8 mphClear
9:00 PM62.6 °F44.6 °F52 %30.04 inSouth (170°)12.7 mphClear
9:00 PM62.0 °F45.0 °F43 %30.04 in19.0 miSouth (170°)12.7 mphPartly Cloudy
9:30 PM62.6 °F42.8 °F48 %30.04 inSouth (170°)11.5 mphClear
10:00 PM60.8 °F44.6 °F55 %30.06 inSouth (180°)15.0 mphClear
10:30 PM60.0 °F45.0 °F47 %30.07 inSouth (180°)12.7 mph
10:30 PM59.0 °F44.6 °F59 %30.06 inSouth (180°)12.7 mphClear
11:00 PM59.0 °F46.4 °F63 %30.06 inSouth (170°)9.2 mphClear
11:30 PM59.0 °F46.4 °F63 %30.06 inSouth (170°)10.4 mphClear
Hourly data recorded from YPAD, located miles away from Kangarilla, South Australia







STORIES FROM OUR PARTNERS